Regional Weather Roundup
Issued by NWS Jackson, KY

Home | Current Version | Previous Version | Graphics & Text | Print | Product List | Glossary On
Versions: 1 2 3 4 5 6 7 8 9 10 11 12 13 14 15 16 17 18 19 20 21 22 23 24 25 26 27 28 29 30 31 32 33 34 35 36 37 38 39 40 41 42 43 44 45 46 47 48 49 50
000
ASUS43 KJKL 201419
RWRJKL

EAST KENTUCKY HOURLY WEATHER ROUNDUP
NATIONAL WEATHER SERVICE JACKSON KY
1000 AM EDT SUN APR 20 2014

NOTE: "FAIR" INDICATES FEW OR NO CLOUDS BELOW 12,000 FEET WITH
NO SIGNIFICANT WEATHER AND/OR OBSTRUCTIONS TO VISIBILITY.

* THESE REPORTS ARE NOT UNDER NWS QUALITY CONTROL AND MAY NOT
  REPORT WEATHER SUCH AS PRECIPITATION AND FOG.

KYZ079-080-083-085-087-088-110-112-115-119-120-201500
...EASTERN KENTUCKY...

CITY           SKY/WX    TMP DP  RH WIND       PRES   REMARKS
JACKSON        SUNNY     60  37  42 SE6       30.26S
LONDON         SUNNY     62  42  47 CALM      30.26R
SOMERSET*      SUNNY     59  41  51 CALM      30.26F
MONTICELLO*    SUNNY     64  42  44 SE12      30.26S
MIDDLESBORO*   SUNNY     61  42  48 CALM      30.27S
HARLAN APT*    SUNNY     63  37  39 E6        30.27S
BLACK MTN*       N/A     54  32  43 S3          N/A
PIKEVILLE APT* SUNNY     59  37  44 SE6       30.27S
BIG SANDY*     SUNNY     62  40  44 S3        30.27F
ASHLAND*       SUNNY     57  39  51 CALM      30.27F
MOREHEAD APT*  SUNNY     63  37  39 SE6       30.28S
$$

KYZ035-036-041-042-044-050-067-078-099-201500
...CENTRAL KENTUCKY...

CITY           SKY/WX    TMP DP  RH WIND       PRES   REMARKS
MT STERLING*   SUNNY     59  37  44 SE3       30.27S
FLEMING/MASON* SUNNY     59  37  44 E3        30.27F
DANVILLE*      SUNNY     59  41  51 CALM      30.26S
LEXINGTON      SUNNY     63  37  38 SE5       30.26R
FRANKFORT      SUNNY     58  38  47 E6        30.25S
$$

KYZ091>093-OHZ055-061-077-WVZ005-015-034-035-042-201500
...SOUTHERN OHIO/WEST VIRGINIA...

CITY           SKY/WX    TMP DP  RH WIND       PRES   REMARKS
COVINGTON      MOSUNNY   59  33  37 SE6       30.27R
COLUMBUS       PTSUNNY   59  32  36 SE8       30.28F
DAYTON         PTSUNNY   56  34  43 E6        30.28F
WILMINGTON     SUNNY     55  35  47 E6        30.27S
HUNTINGTON     SUNNY     59  38  45 E7        30.28S
CHARLESTON     MOSUNNY   62  35  36 E9        30.29S
PINEVILLE*     SUNNY     59  38  45 MISG      30.35S
BECKLEY        SUNNY     54  29  38 E7        30.31R
BLUEFIELD      SUNNY     57  28  33 VRB6      30.32R
$$

VAZ002-007-008-TNZ017-027-036-066-071-201500
...SOUTHWEST VIRGINIA/EAST TENNESSEE...

CITY           SKY/WX    TMP DP  RH WIND       PRES   REMARKS
WISE*          SUNNY     55  32  41 SE5       30.30R
ABINGDON*      SUNNY     57  33  40 E12       30.30S
BRISTOL        MOSUNNY   59  38  45 E6        30.29S
KNOXVILLE      MOSUNNY   57  47  69 E5        30.25S
OAK RIDGE      SUNNY     60  46  59 CALM      30.27S
CROSSVILLE     SUNNY     60  39  45 E6        30.26S
NASHVILLE      MOSUNNY   62  43  49 CALM      30.24S
$$

...KEY TO REMARKS...
VSB - VISIBILITY IN MILES
WCI - WIND CHILL INDEX
HX  - HEAT INDEX

$$



USA.gov is the U.S. government's official web portal to all federal, state and local government web resources and services.